Location: Poughquag
(41.6090°N, 73.6820°W)
Time: 12:44:54
(UTC-04:00)

Vanguard 1 Rocket - Pass Details

Date: 31 May 2020
Orbit: 653 x 4224 km, 34.3° (Epoch: 06 July)

Event Time Altitude Azimuth Distance (km) Brightness Sun altitude
Rises 05:28:16 0° 273° (W) 6,035 11.1 0.0°
Reaches altitude 10° 05:33:15 10° 268° (W) 4,414 10.4 0.8°
Maximum altitude 05:42:51 40° 204° (SSW) 1,737 8.5 2.4°
Drops below altitude 10° 05:48:24 10° 135° (SE) 2,553 10.0 3.3°
Sets 05:50:33 0° 127° (SE) 3,286 10.7 3.7°
